Time,TemperatureF,DewpointF,PressureIn,WindDirection,WindDirectionDegrees,WindSpeedMPH,WindSpeedGustMPH,Humidity,HourlyPrecipIn,Conditions,Clouds,dailyrainin,SoftwareType,DateUTC
2013-07-03 00:02:00,67.0,47.0,30.06,NE,46,0.0,-999.0,49,-99.99,,,0.00,weatherlink.com 1.10,2013-07-03 06:02:00,
2013-07-03 00:17:00,65.7,46.0,30.05,NE,46,0.0,-999.0,50,-99.99,,,0.00,weatherlink.com 1.10,2013-07-03 06:17:00,
2013-07-03 00:32:00,64.7,46.0,30.06,NE,46,0.0,-999.0,51,-99.99,,,0.00,weatherlink.com 1.10,2013-07-03 06:32:00,
2013-07-03 00:47:00,64.1,47.0,30.06,NE,46,0.0,-999.0,54,-99.99,,,0.00,weatherlink.com 1.10,2013-07-03 06:47:00,
2013-07-03 01:02:00,63.7,47.0,30.05,NE,46,0.0,-999.0,54,-99.99,,,0.00,weatherlink.com 1.10,2013-07-03 07:02:00,
2013-07-03 01:47:00,61.9,48.0,30.05,NE,46,0.0,-999.0,60,-99.99,,,0.00,weatherlink.com 1.10,2013-07-03 07:47:00,
2013-07-03 02:02:00,61.5,48.0,30.04,NE,46,0.0,-999.0,62,-99.99,,,0.00,weatherlink.com 1.10,2013-07-03 08:02:00,
2013-07-03 02:17:00,61.1,48.0,30.04,NE,46,0.0,-999.0,63,-99.99,,,0.00,weatherlink.com 1.10,2013-07-03 08:17:00,
2013-07-03 02:32:00,60.6,49.0,30.04,NE,46,0.0,-999.0,65,-99.99,,,0.00,weatherlink.com 1.10,2013-07-03 08:32:00,
2013-07-03 02:47:00,60.4,48.0,30.04,NE,46,0.0,-999.0,64,-99.99,,,0.00,weatherlink.com 1.10,2013-07-03 08:47:00,
2013-07-03 03:02:00,59.9,49.0,30.05,NE,46,0.0,-999.0,67,-99.99,,,0.00,weatherlink.com 1.10,2013-07-03 09:02:00,
2013-07-03 03:17:00,59.6,49.0,30.04,NE,46,0.0,-999.0,69,-99.99,,,0.00,weatherlink.com 1.10,2013-07-03 09:17:00,
2013-07-03 03:32:00,59.1,49.0,30.04,NE,46,0.0,-999.0,70,-99.99,,,0.00,weatherlink.com 1.10,2013-07-03 09:32:00,
2013-07-03 03:47:00,59.0,50.0,30.03,NE,46,0.0,-999.0,71,-99.99,,,0.00,weatherlink.com 1.10,2013-07-03 09:47:00,
2013-07-03 04:02:00,58.7,49.0,30.04,NE,46,0.0,-999.0,71,-99.99,,,0.00,weatherlink.com 1.10,2013-07-03 10:02:00,
2013-07-03 04:17:00,58.3,49.0,30.04,NE,46,0.0,-999.0,72,-99.99,,,0.00,weatherlink.com 1.10,2013-07-03 10:17:00,
2013-07-03 04:32:00,58.1,49.0,30.04,NE,46,0.0,-999.0,73,-99.99,,,0.00,weatherlink.com 1.10,2013-07-03 10:32:00,
2013-07-03 04:47:00,58.0,49.0,30.05,NE,46,0.0,-999.0,73,-99.99,,,0.00,weatherlink.com 1.10,2013-07-03 10:47:00,
2013-07-03 05:02:00,57.6,49.0,30.05,NE,46,0.0,-999.0,73,-99.99,,,0.00,weatherlink.com 1.10,2013-07-03 11:02:00,
2013-07-03 05:17:00,57.5,50.0,30.05,NE,46,0.0,-999.0,75,-99.99,,,0.00,weatherlink.com 1.10,2013-07-03 11:17:00,
2013-07-03 05:32:00,57.7,50.0,30.04,NE,46,0.0,-999.0,75,-99.99,,,0.00,weatherlink.com 1.10,2013-07-03 11:32:00,
2013-07-03 05:47:00,57.5,50.0,30.04,NE,46,0.0,-999.0,76,-99.99,,,0.00,weatherlink.com 1.10,2013-07-03 11:47:00,
2013-07-03 06:02:00,57.3,50.0,30.04,NNW,348,0.0,-999.0,76,-99.99,,,0.00,weatherlink.com 1.10,2013-07-03 12:02:00,
2013-07-03 06:17:00,57.4,50.0,30.04,West,276,0.0,-999.0,77,-99.99,,,0.00,weatherlink.com 1.10,2013-07-03 12:17:00,
2013-07-03 06:32:00,57.9,51.0,30.05,NW,312,0.0,-999.0,77,-99.99,,,0.00,weatherlink.com 1.10,2013-07-03 12:32:00,
2013-07-03 06:47:00,58.8,52.0,30.05,NW,312,0.0,-999.0,77,-99.99,,,0.00,weatherlink.com 1.10,2013-07-03 12:47:00,
2013-07-03 07:02:00,59.9,53.0,30.06,NW,312,0.0,-999.0,78,-99.99,,,0.00,weatherlink.com 1.10,2013-07-03 13:02:00,
2013-07-03 07:17:00,62.1,55.0,30.06,NW,312,0.0,-999.0,77,-99.99,,,0.00,weatherlink.com 1.10,2013-07-03 13:17:00,
2013-07-03 07:32:00,65.0,55.0,30.06,NW,312,0.0,-999.0,70,-99.99,,,0.00,weatherlink.com 1.10,2013-07-03 13:32:00,
2013-07-03 07:47:00,68.2,54.0,30.06,NW,312,0.0,-999.0,61,-99.99,,,0.00,weatherlink.com 1.10,2013-07-03 13:47:00,
2013-07-03 08:47:00,77.3,54.0,30.06,ESE,109,2.0,-999.0,44,-99.99,,,0.00,weatherlink.com 1.10,2013-07-03 14:47:00,
2013-07-03 09:03:00,79.0,53.0,30.06,ESE,104,4.0,-999.0,41,-99.99,,,0.00,weatherlink.com 1.10,2013-07-03 15:03:00,
2013-07-03 09:17:00,80.0,53.0,30.05,ESE,109,0.0,-999.0,39,-99.99,,,0.00,weatherlink.com 1.10,2013-07-03 15:17:00,
2013-07-03 09:32:00,81.7,54.0,30.05,ENE,69,0.0,-999.0,39,-99.99,,,0.00,weatherlink.com 1.10,2013-07-03 15:32:00,
2013-07-03 09:47:00,83.2,50.0,30.05,SSE,148,0.0,-999.0,31,-99.99,,,0.00,weatherlink.com 1.10,2013-07-03 15:47:00,
2013-07-03 10:02:00,84.3,50.0,30.05,ESE,114,0.0,-999.0,30,-99.99,,,0.00,weatherlink.com 1.10,2013-07-03 16:02:00,
2013-07-03 10:17:00,85.5,51.0,30.05,SE,140,3.0,-999.0,30,-99.99,,,0.00,weatherlink.com 1.10,2013-07-03 16:17:00,
2013-07-03 10:32:00,85.8,48.0,30.05,North,2,2.0,-999.0,27,-99.99,,,0.00,weatherlink.com 1.10,2013-07-03 16:32:00,
2013-07-03 10:47:00,85.4,51.0,30.04,ENE,76,1.0,-999.0,31,-99.99,,,0.00,weatherlink.com 1.10,2013-07-03 16:47:00,
2013-07-03 11:02:00,86.4,51.0,30.04,SE,126,0.0,-999.0,29,-99.99,,,0.00,weatherlink.com 1.10,2013-07-03 17:02:00,
2013-07-03 11:17:00,87.1,50.0,30.03,SE,143,2.0,-999.0,28,-99.99,,,0.00,weatherlink.com 1.10,2013-07-03 17:17:00,
2013-07-03 11:32:00,86.9,47.0,30.03,East,79,0.0,-999.0,25,-99.99,,,0.00,weatherlink.com 1.10,2013-07-03 17:32:00,
2013-07-03 11:47:00,87.8,48.0,30.02,NE,50,4.0,-999.0,25,-99.99,,,0.00,weatherlink.com 1.10,2013-07-03 17:47:00,
2013-07-03 12:02:00,88.6,49.0,30.02,SE,133,1.0,-999.0,25,-99.99,,,0.00,weatherlink.com 1.10,2013-07-03 18:02:00,
2013-07-03 12:17:00,88.6,50.0,30.01,ESE,118,0.0,-999.0,26,-99.99,,,0.00,weatherlink.com 1.10,2013-07-03 18:17:00,
2013-07-03 12:32:00,88.6,49.0,30.01,SW,225,5.0,-999.0,25,-99.99,,,0.00,weatherlink.com 1.10,2013-07-03 18:32:00,
2013-07-03 12:47:00,89.3,50.0,30.00,SSE,155,2.0,-999.0,26,-99.99,,,0.00,weatherlink.com 1.10,2013-07-03 18:47:00,
2013-07-03 13:02:00,89.3,45.0,29.99,North,355,2.0,-999.0,21,-99.99,,,0.00,weatherlink.com 1.10,2013-07-03 19:02:00,
2013-07-03 13:32:00,89.4,45.0,29.98,WNW,288,1.0,-999.0,21,-99.99,,,0.00,weatherlink.com 1.10,2013-07-03 19:32:00,
2013-07-03 13:47:00,90.6,46.0,29.98,North,5,0.0,-999.0,21,-99.99,,,0.00,weatherlink.com 1.10,2013-07-03 19:47:00,
2013-07-03 14:32:00,91.0,51.0,29.97,SE,132,1.0,-999.0,25,-99.99,,,0.00,weatherlink.com 1.10,2013-07-03 20:32:00,
2013-07-03 14:47:00,90.2,51.0,29.96,SE,139,0.0,-999.0,26,-99.99,,,0.00,weatherlink.com 1.10,2013-07-03 20:47:00,
2013-07-03 15:02:00,90.0,49.0,29.96,North,351,5.0,-999.0,24,-99.99,,,0.00,weatherlink.com 1.10,2013-07-03 21:02:00,
2013-07-03 15:17:00,91.0,50.0,29.95,North,2,2.0,-999.0,24,-99.99,,,0.00,weatherlink.com 1.10,2013-07-03 21:17:00,
2013-07-03 15:32:00,89.8,50.0,29.94,WNW,300,0.0,-999.0,25,-99.99,,,0.00,weatherlink.com 1.10,2013-07-03 21:32:00,
2013-07-03 16:02:00,90.8,49.0,29.94,North,349,0.0,-999.0,24,-99.99,,,0.00,weatherlink.com 1.10,2013-07-03 22:02:00,
2013-07-03 16:17:00,90.3,48.0,29.93,ENE,68,0.0,-999.0,23,-99.99,,,0.00,weatherlink.com 1.10,2013-07-03 22:17:00,
2013-07-03 16:32:00,90.7,50.0,29.92,SSE,154,2.0,-999.0,25,-99.99,,,0.00,weatherlink.com 1.10,2013-07-03 22:32:00,
2013-07-03 17:32:00,89.5,49.0,29.91,ESE,104,0.0,-999.0,25,-99.99,,,0.00,weatherlink.com 1.10,2013-07-03 23:32:00,
2013-07-03 17:47:00,89.4,51.0,29.91,East,99,0.0,-999.0,27,-99.99,,,0.00,weatherlink.com 1.10,2013-07-03 23:47:00,
2013-07-03 18:02:00,88.6,50.0,29.91,ESE,116,0.0,-999.0,26,-99.99,,,0.00,weatherlink.com 1.10,2013-07-04 00:02:00,
2013-07-03 18:17:00,87.8,51.0,29.91,ESE,120,0.0,-999.0,28,-99.99,,,0.00,weatherlink.com 1.10,2013-07-04 00:17:00,
2013-07-03 18:32:00,87.3,49.0,29.90,ESE,113,0.0,-999.0,27,-99.99,,,0.00,weatherlink.com 1.10,2013-07-04 00:32:00,
2013-07-03 18:47:00,86.5,50.0,29.91,East,94,2.0,-999.0,28,-99.99,,,0.00,weatherlink.com 1.10,2013-07-04 00:47:00,
2013-07-03 19:02:00,85.5,49.0,29.91,East,99,0.0,-999.0,28,-99.99,,,0.00,weatherlink.com 1.10,2013-07-04 01:02:00,
2013-07-03 19:17:00,84.8,50.0,29.92,ESE,109,0.0,-999.0,30,-99.99,,,0.00,weatherlink.com 1.10,2013-07-04 01:17:00,
2013-07-03 19:47:00,82.9,49.0,29.92,ESE,117,0.0,-999.0,31,-99.99,,,0.00,weatherlink.com 1.10,2013-07-04 01:47:00,
2013-07-03 20:02:00,81.8,49.0,29.93,ESE,117,0.0,-999.0,32,-99.99,,,0.00,weatherlink.com 1.10,2013-07-04 02:02:00,
2013-07-03 20:17:00,80.3,51.0,29.93,ESE,117,0.0,-999.0,36,-99.99,,,0.00,weatherlink.com 1.10,2013-07-04 02:17:00,
2013-07-03 20:32:00,78.2,51.0,29.92,ESE,117,0.0,-999.0,39,-99.99,,,0.00,weatherlink.com 1.10,2013-07-04 02:32:00,
2013-07-03 20:47:00,76.5,52.0,29.93,ESE,117,0.0,-999.0,42,-99.99,,,0.00,weatherlink.com 1.10,2013-07-04 02:47:00,
2013-07-03 21:02:00,75.2,50.0,29.93,ESE,117,0.0,-999.0,42,-99.99,,,0.00,weatherlink.com 1.10,2013-07-04 03:02:00,
2013-07-03 21:16:00,73.8,51.0,29.94,ESE,117,0.0,-999.0,45,-99.99,,,0.00,weatherlink.com 1.10,2013-07-04 03:16:00,
2013-07-03 21:31:00,72.7,51.0,29.94,ESE,117,0.0,-999.0,46,-99.99,,,0.00,weatherlink.com 1.10,2013-07-04 03:31:00,
2013-07-03 21:46:00,71.6,51.0,29.94,ESE,117,0.0,-999.0,49,-99.99,,,0.00,weatherlink.com 1.10,2013-07-04 03:46:00,
2013-07-03 22:01:00,70.8,51.0,29.95,ESE,117,0.0,-999.0,50,-99.99,,,0.00,weatherlink.com 1.10,2013-07-04 04:01:00,
2013-07-03 22:16:00,70.2,51.0,29.95,ESE,117,0.0,-999.0,50,-99.99,,,0.00,weatherlink.com 1.10,2013-07-04 04:16:00,
2013-07-03 22:31:00,69.5,51.0,29.94,ESE,117,0.0,-999.0,53,-99.99,,,0.00,weatherlink.com 1.10,2013-07-04 04:31:00,
2013-07-03 22:46:00,69.2,52.0,29.96,ESE,117,0.0,-999.0,54,-99.99,,,0.00,weatherlink.com 1.10,2013-07-04 04:46:00,
2013-07-03 23:01:00,69.0,52.0,29.96,ESE,117,0.0,-999.0,55,-99.99,,,0.00,weatherlink.com 1.10,2013-07-04 05:01:00,
2013-07-03 23:16:00,68.6,52.0,29.96,ESE,117,0.0,-999.0,56,-99.99,,,0.00,weatherlink.com 1.10,2013-07-04 05:16:00,
2013-07-03 23:31:00,68.2,51.0,29.97,ESE,117,0.0,-999.0,55,-99.99,,,0.00,weatherlink.com 1.10,2013-07-04 05:31:00,
2013-07-03 23:47:00,68.0,52.0,29.96,ESE,117,0.0,-999.0,58,-99.99,,,0.00,weatherlink.com 1.10,2013-07-04 05:47:00,